RH
90 85 87 95 90 98 90 83 57 27 11 12 12 12 14 13 16 29 33 39 28 38 50 58 58 44 33 32 47 49 65 77 92 95 91 85 97 100 74 66 90 95 99 90 96 98 99
97 89 84 89 100 100 97 97 99 37 20 11 12 11 13 13 17 28 34 38 28 44 58 60 58 49 40 39 60 52 51 63 93 90 89 84 94 95 95 84 85 74 96 82 100 88 98
98 99 94 90 90 100 100 98 99 42 20 11 11 9 12 14 18 28 40 29 40 53 62 59 57 48 47 50 70 48 57 99 66 56 95 94 97 98 99 96 78 84 82 91 93 83 100
99 97 100 94 97 99 99 99 88 50 28 11 10 7 11 14 19 30 39 32 44 60 63 59 53 42 45 75 62 56 62 56 68 55 95 94 97 96 99 95 72 94 85 92 88 90 98
100 100 98 100 98 100 99 93 81 40 34 10 10 6 9 15 24 34 32 41 48 61 61 65 51 49 65 79 80 60 58 63 58 54 86 99 93 98 98 82 87 96 79 79 82 70 92
94 100 98 99 90 100 100 92 98 62 34 10 10 6 8 14 29 36 32 41 52 64 65 68 66 68 85 89 61 57 46 58 78 76 71 97 85 90 98 98 85 92 69 86 66 75 98
98 96 99 100 100 100 100 100 98 60 42 9 9 6 8 14 31 34 37 44 58 65 68 64 58 68 58 45 45 42 55 58 86 76 86 98 96 93 97 73 86 75 55 76 75 68 94
94 100 96 100 100 100 99 100 99 54 36 8 8 6 8 14 31 33 37 46 61 63 74 79 61 50 52 73 68 60 62 70 92 91 96 99 96 90 99 91 88 72 70 74 71 72 71
96 72 94 90 100 100 100 100 92 63 28 7 7 6 9 17 30 33 37 49 60 67 86 95 71 66 83 94 97 68 56 73 83 96 98 99 93 92 93 84 90 74 74 69 79 91 88
95 100 99 96 100 99 100 100 90 74 26 7 6 8 11 19 31 32 36 58 58 69 97 98 80 91 95 98 86 70 76 88 96 98 98 98 99 97 94 77 73 77 71 52 62 80 96
99 100 98 100 94 94 100 100 98 83 21 7 6 10 14 23 31 31 41 55 63 80 90 81 72 85 93 91 78 77 99 84 92 96 97 99 99 90 87 82 85 67 66 66 94 92 93
98 95 96 97 82 99 100 100 99 89 12 7 6 12 15 26 33 33 46 58 68 85 93 65 79 94 96 97 95 97 98 85 96 92 98 95 88 90 98 95 91 76 87 79 93 80 70
92 99 100 91 81 100 100 100 99 88 8 7 8 14 16 23 34 33 48 60 70 80 84 60 80 99 96 100 92 77 92 86 81 75 93 93 98 100 91 90 94 92 77 94 87 80 78
99 99 98 99 86 99 100 100 100 79 6 6 12 16 18 21 36 36 49 62 72 76 87 63 68 76 75 93 88 82 88 90 79 74 76 79 73 85 84 88 93 91 70 62 83 90 66
98 86 95 100 94 100 100 100 100 53 6 6 15 17 21 29 37 36 48 62 63 69 79 79 55 61 59 69 80 91 70 76 81 85 82 83 98 78 88 76 77 78 74 70 65 57 62
93 97 99 100 98 99 100 100 100 24 7 6 17 17 21 32 37 40 45 48 72 77 86 99 94 71 47 69 78 83 69 62 66 80 79 87 96 98 80 70 75 75 76 64 58 68 58
97 98 99 99 99 100 100 100 99 10 7 8 18 16 22 34 39 41 43 57 70 79 71 100 87 75 48 67 78 84 81 55 57 62 83 90 82 98 83 76 70 71 77 68 65 62 71
98 98 98 100 100 100 100 100 82 6 6 11 17 17 23 35 40 38 52 55 59 75 79 79 84 82 82 61 81 86 81 81 76 62 75 84 81 98 93 83 79 75 75 76 68 64 59
100 98 99 99 100 100 100 100 29 7 7 16 14 16 24 37 42 36 55 69 60 68 80 79 86 84 88 89 89 88 84 71 81 71 73 79 81 94 97 84 73 71 68 77 79 72 68
98 99 99 99 100 100 100 96 8 8 8 14 14 17 24 35 43 39 51 65 65 70 70 74 74 81 87 85 87 86 86 76 84 81 77 75 73 80 72 78 77 74 60 71 89 79 65
98 97 99 99 99 100 100 59 10 7 10 13 14 15 17 26 39 38 52 60 71 73 72 74 72 79 87 82 89 87 90 79 83 89 86 80 77 75 86 82 76 85 74 70 80 70 80
96 98 98 99 99 99 100 57 81 7 11 13 15 16 17 19 37 50 57 66 66 76 74 72 69 75 81 84 83 92 78 75 93 87 86 84 87 81 73 73 69 68 64 61 59 62 81
84 98 99 94 99 99 100 88 85 7 13 14 15 16 18 18 28 44 47 77 87 77 75 75 72 74 75 80 84 84 80 83 90 92 91 95 94 91 82 82 80 69 49 52 52 54 57
98 96 99 99 99 99 100 98 45 10 14 18 19 18 19 16 22 29 53 69 100 76 70 63 75 74 67 73 74 71 74 87 91 92 93 90 86 88 84 80 87 55 55 54 53 48 48
97 96 99 97 99 99 100 100 11 12 16 19 20 18 20 18 18 28 63 57 67 76 69 66 68 80 73 75 75 77 74 69 69 72 88 80 85 83 82 82 66 50 55 55 52 44 39
92 96 99 98 99 99 100 85 17 29 18 20 22 20 20 20 16 23 40 35 50 63 70 68 72 77 82 85 80 86 78 80 84 78 68 69 75 87 85 86 81 65 64 67 65 56 56
80 97 99 99 98 99 100 96 75 17 21 18 21 20 20 20 17 13 14 22 31 47 55 66 72 79 84 86 84 84 84 81 74 74 72 71 74 79 84 92 78 67 68 69 65 65 78
68 95 99 98 99 99 100 100 99 23 17 16 21 20 20 23 18 16 16 20 21 27 30 46 74 77 83 86 84 78 86 77 70 67 72 72 75 76 83 86 85 76 78 75 71 66 65
82 94 99 99 100 99 100 100 99 36 18 15 20 20 23 23 20 22 23 22 23 30 33 36 43 58 73 80 77 77 87 82 75 64 68 71 71 69 77 79 81 82 86 96 84 84 84
Wind_Speed
30 33 33 30 28 30 38 33 37 36 35 33 34 35 34 32 28 24 17 16 16 19 17 17 15 14 12 11 13 15 19 20 9 9 18 27 35 26 32 34 31 33 30 42 36 30 13
22 31 29 35 33 32 36 35 41 35 34 33 34 34 34 31 27 22 16 16 16 16 16 13 15 14 12 14 11 14 18 13 13 11 9 21 29 32 27 26 35 38 14 30 38 36 19
24 22 31 34 33 33 36 34 40 35 34 33 33 34 33 29 25 19 16 15 16 13 12 12 14 12 11 11 12 17 14 11 9 8 10 18 23 32 19 20 33 15 32 17 26 40 31
27 27 25 35 35 33 34 33 40 32 33 32 33 33 31 28 23 17 15 15 13 10 8 11 12 10 8 8 10 10 9 14 8 11 12 22 12 36 23 23 30 24 22 26 23 21 33
33 28 27 28 37 37 34 32 35 31 33 32 32 33 30 26 21 16 14 13 10 8 6 11 8 9 5 7 7 9 10 11 8 10 19 14 23 31 19 30 33 27 25 27 23 23 24
36 34 30 31 31 39 34 31 36 32 32 32 31 32 29 23 19 14 13 11 9 5 4 12 6 6 6 10 10 11 11 8 8 10 11 10 28 26 25 25 23 24 29 25 23 27 27
39 36 35 33 29 39 35 30 38 30 32 31 29 30 26 21 17 13 13 10 7 2 3 13 11 10 11 10 8 10 7 7 6 7 2 9 26 29 30 33 20 30 38 31 21 23 20
50 42 39 34 29 38 30 30 35 29 31 29 27 27 23 19 15 12 11 9 6 1 6 13 9 7 7 7 6 4 5 4 3 2 2 14 16 27 27 23 19 20 24 23 25 18 21
42 46 42 42 36 36 30 28 33 27 29 28 26 24 20 16 13 11 10 8 6 1 5 13 15 12 13 7 9 5 2 1 2 2 8 12 15 19 24 24 17 19 23 26 24 20 15
50 43 41 42 37 36 33 27 30 26 27 26 24 21 17 13 11 9 8 6 4 2 3 14 14 15 15 14 9 8 6 8 4 11 13 12 21 26 27 26 22 20 22 29 26 20 7
51 50 47 44 41 43 31 27 28 24 25 24 22 17 15 10 8 6 5 5 4 4 4 13 11 13 16 16 8 10 13 13 10 5 14 20 25 29 22 24 18 20 21 17 20 16 13
52 49 43 44 43 42 36 28 27 23 22 21 18 14 12 8 6 4 4 5 5 3 3 9 12 15 11 16 14 19 18 16 13 10 16 22 19 20 21 15 16 26 23 20 20 11 2
50 47 47 41 47 46 29 28 24 23 20 18 15 11 9 6 2 2 5 5 3 7 3 8 10 11 18 20 22 15 18 11 11 11 15 15 24 22 20 18 16 30 23 5 3 2 4
38 41 49 40 48 37 26 25 23 21 18 16 12 9 6 3 1 4 5 7 5 5 6 8 14 14 15 18 17 14 13 15 12 13 15 10 8 13 19 18 11 25 11 5 5 3 3
30 49 50 31 49 34 26 22 26 20 16 14 9 6 3 1 3 6 6 5 5 9 9 9 13 9 7 10 10 9 14 13 12 9 6 6 2 8 14 14 21 19 5 5 3 2 3
31 33 47 31 41 34 26 29 23 17 15 11 7 4 3 3 6 8 6 7 9 9 8 9 5 5 10 9 6 6 6 8 5 9 8 7 7 6 14 11 9 8 6 3 1 2 3
25 22 40 31 40 33 25 29 20 17 13 10 6 5 5 7 9 9 8 10 11 9 10 7 9 6 9 7 10 8 3 3 4 5 8 9 3 10 14 10 11 8 7 3 2 1 3
21 11 42 29 36 29 29 25 18 16 13 9 6 6 8 10 12 10 12 14 12 11 8 15 12 11 2 6 6 4 1 1 2 8 7 4 5 7 7 9 15 11 14 8 2 2 1
17 22 37 26 33 29 26 23 18 16 12 9 7 7 10 13 11 12 15 13 12 13 13 13 10 12 8 5 3 2 3 1 5 12 10 7 5 9 3 10 16 18 16 16 12 9 5
19 22 19 26 32 23 25 20 18 16 12 10 8 9 11 15 12 15 16 15 16 16 12 10 12 8 9 4 4 1 2 2 5 8 8 7 8 3 7 3 5 16 20 17 14 10 21
12 24 27 30 31 23 28 22 17 16 12 10 9 9 9 12 15 14 18 15 17 17 13 11 11 12 7 3 7 5 2 1 6 6 7 4 5 7 7 6 5 8 12 21 23 26 20
32 13 25 28 30 19 32 27 26 16 13 12 9 8 10 12 16 15 18 17 17 17 17 15 13 11 10 7 4 6 3 6 4 5 3 4 3 3 6 7 11 13 14 17 20 24 31
35 20 35 37 27 19 33 24 23 15 14 12 11 9 11 12 16 18 16 20 15 15 16 18 16 14 12 7 6 3 2 2 2 2 4 1 2 4 3 3 8 13 12 16 23 26 28
23 39 25 31 28 25 32 25 23 17 15 13 12 10 10 11 15 15 17 18 17 16 17 16 16 13 11 9 8 7 6 6 7 4 4 4 6 4 5 5 1 3 8 15 15 16 16
25 31 29 33 22 30 31 22 22 18 17 17 13 11 10 9 11 15 15 16 16 16 16 16 14 14 7 9 8 5 5 5 5 6 11 10 8 4 3 3 14 15 4 6 9 12 11
28 24 38 33 30 36 30 26 22 18 20 17 15 12 10 7 13 13 17 13 17 19 18 15 15 16 11 12 9 5 4 3 3 2 2 10 12 11 4 2 3 4 14 17 21 19 8
30 35 36 33 25 36 30 32 28 23 21 18 15 12 11 10 10 11 14 14 16 18 17 18 18 17 15 14 11 5 4 6 3 3 3 2 7 15 13 8 8 11 14 17 9 8 9
29 30 38 32 26 33 31 25 31 22 20 19 16 13 11 9 10 10 10 12 12 13 12 15 19 20 17 14 12 8 5 7 6 6 3 3 2 2 4 5 6 4 9 9 14 15 18
28 35 24 26 25 30 25 23 26 26 22 20 16 14 15 12 11 11 10 11 11 13 13 12 14 15 17 16 13 10 8 7 8 3 5 4 7 5 6 5 10 16 19 19 20 22 22
Wind_Direction
317 318 319 324 328 325 324 333 330 333 335 338 337 338 340 336 332 328 316 307 310 313 314 308 311 310 301 307 304 315 324 311 306 286 224 217 200 193 198 208 205 206 221 210 207 202 176
297 307 307 312 318 320 322 323 321 326 333 335 335 338 338 336 332 329 318 312 318 318 314 309 314 310 297 303 303 312 312 316 307 298 215 221 201 179 196 206 201 208 179 212 214 215 204
286 295 300 297 309 312 315 319 315 320 330 331 334 336 337 336 331 329 319 318 323 324 314 316 319 311 301 308 314 325 312 324 315 291 239 214 204 183 208 179 196 189 199 183 212 219 215
277 281 288 294 300 307 304 314 312 319 327 329 331 335 337 334 332 327 320 325 328 326 316 324 321 312 302 309 325 326 327 334 329 294 207 215 225 200 188 178 178 176 188 197 209 207 219
271 273 276 283 295 298 301 309 313 317 323 325 330 335 337 333 331 325 324 328 333 328 319 336 325 321 307 311 333 338 355 338 346 310 284 189 213 191 188 178 169 178 179 194 196 208 216
269 267 269 276 282 290 298 306 308 314 319 322 328 333 336 332 329 324 327 335 341 322 330 349 329 340 321 283 314 312 330 351 349 348 287 216 199 189 174 156 172 177 185 191 198 197 218
265 261 264 270 272 283 289 294 297 308 313 319 326 332 334 329 327 327 329 347 339 315 345 4 341 333 327 333 307 303 339 348 11 351 226 173 192 207 172 177 168 182 189 192 192 206 193
265 263 258 262 268 272 283 293 295 305 309 316 324 331 332 327 326 326 334 351 347 353 18 14 4 14 15 1 326 349 346 356 23 316 305 147 181 195 175 159 143 187 180 180 192 196 205
257 257 259 257 262 270 275 284 291 300 308 312 321 331 329 325 326 329 342 357 358 339 6 6 17 21 3 9 10 20 41 98 163 138 99 125 155 176 167 157 165 160 180 170 180 184 191
249 248 254 256 255 263 265 271 286 295 304 308 318 330 326 324 329 328 352 17 29 43 40 4 14 30 19 358 39 48 87 98 64 53 68 105 140 159 164 182 184 176 179 198 193 183 183
243 247 249 251 247 250 261 273 281 290 298 305 316 326 325 324 322 336 14 46 61 52 41 350 29 43 48 52 55 93 95 94 79 55 76 89 136 150 156 162 174 187 189 191 155 168 179
240 239 241 245 250 246 258 258 275 284 291 301 312 321 322 325 323 359 59 76 58 76 49 26 63 51 34 58 69 87 81 94 83 72 80 100 153 140 121 132 165 166 160 157 175 175 130
237 235 235 235 245 243 243 252 264 278 284 296 307 314 320 324 324 66 90 80 82 63 79 41 83 69 63 72 82 61 61 105 79 82 97 89 97 98 113 120 150 148 135 106 61 59 188
234 230 230 238 240 242 244 243 248 271 277 289 300 308 315 307 112 103 109 106 79 84 120 95 106 100 87 88 86 63 61 71 84 83 75 66 91 115 124 132 141 146 46 104 152 165 221
252 234 220 227 230 234 220 230 244 261 268 280 286 299 296 243 152 132 128 105 124 130 113 107 98 75 95 94 108 92 64 98 85 78 90 105 99 160 140 126 151 171 128 86 87 124 105
225 237 222 224 224 223 211 233 241 249 257 270 267 274 223 185 157 143 139 126 136 147 146 113 85 81 123 104 84 90 63 109 95 85 99 81 116 166 169 147 149 166 161 160 51 104 168
259 246 217 222 224 217 218 224 233 237 244 251 239 237 199 177 155 150 146 134 146 155 150 134 112 112 143 100 91 76 48 129 155 123 108 108 116 161 175 193 180 176 172 159 184 215 154
262 255 208 214 210 204 210 212 222 226 229 229 220 226 189 174 156 155 139 147 150 154 155 140 130 127 102 114 69 49 59 49 148 165 156 99 103 150 175 159 188 196 188 179 216 222 138
227 243 205 208 204 203 202 207 209 214 215 209 198 207 179 175 167 159 156 161 164 163 155 158 155 160 153 154 175 215 237 106 133 165 163 151 130 115 142 222 223 227 209 208 224 250 241
192 155 195 207 209 197 200 197 200 204 205 198 191 190 183 177 171 165 166 165 167 167 164 165 162 159 160 171 170 189 287 139 165 178 178 169 158 122 175 158 219 226 227 220 219 230 237
167 204 205 200 198 209 202 189 189 200 199 195 188 189 173 189 181 169 164 177 170 173 175 172 168 151 137 153 132 131 137 316 172 174 182 180 175 215 248 247 273 253 240 231 235 242 237
232 191 180 199 194 206 208 189 192 200 196 191 186 186 169 167 168 177 173 179 180 178 177 181 179 174 175 169 171 178 147 106 73 189 162 180 47 324 321 266 269 270 255 247 246 252 250
233 222 185 198 188 216 212 193 195 192 193 189 185 184 158 171 172 182 185 174 184 193 182 188 189 194 194 191 192 222 225 172 162 127 188 111 16 341 288 280 290 288 281 266 266 264 263
237 228 207 198 183 209 207 192 187 186 181 182 188 184 167 170 174 177 179 187 182 189 191 193 198 203 199 200 202 212 217 214 218 211 169 211 219 235 258 293 240 167 299 299 294 297 285
240 239 193 192 202 206 208 201 181 179 182 182 177 184 170 170 169 182 181 194 191 193 193 201 199 204 193 179 178 164 181 216 220 216 220 232 237 234 252 237 290 290 330 325 325 324 298
254 221 190 192 195 206 205 181 170 181 183 176 181 177 172 174 177 177 194 194 194 197 199 189 197 202 191 181 177 175 191 163 184 196 209 235 234 230 225 256 270 324 325 326 322 305 293
232 228 192 182 177 201 207 184 173 181 174 178 184 174 173 177 173 178 184 187 187 193 203 197 197 197 195 192 185 186 185 195 204 221 223 258 238 237 242 256 273 284 299 313 315 318 325
232 231 198 180 188 199 209 208 188 168 175 183 185 168 172 181 167 165 174 187 190 194 192 193 194 203 198 190 191 197 196 205 217 222 270 283 256 213 220 225 272 331 329 315 306 300 303
222 215 173 174 182 204 208 207 205 177 175 184 179 168 180 167 173 168 178 190 198 211 208 196 194 193 187 185 189 200 189 197 215 223 204 237 242 243 233 241 282 303 295 291 292 286 285